sat.trackr.live / text

‹ back to catalog

HAWK-A

NORAD 43765 · 2018-099H

PAYLOAD ACTIVE UNKNOWN

§ Identity

Operator
Country
US
Launch date
2018-12-03
Launch site
AFWTR
Launch vehicle
Mass (kg)
RCS (m²)

Purposes: tech_demo

External: N2YO · Heavens-Above · Gunter

§ Orbital elements

Epoch: 2026-05-25T02:41:56.818752Z

Period
94.47 min
Inclination
97.3932°
Eccentricity
0.0035040
Mean motion
15.24313969 rev/d
Perigee alt
468.8 km
Apogee alt
516.9 km
Semi-major
6,871.0 km
B*
2.4500e-4
RAAN
197.6526°
Arg perigee
9.7773°
Mean anomaly
350.4139°
Rev number
40,958

§ Raw data

HAWK-A1 43765U 18099H   26145.11246318  .00006020  00000+0  24500-3 0  99972 43765  97.3932 197.6526 0035040   9.7773 350.4139 15.24313969409585

JSON: /api/v1/satellites/43765 · /tle

For live sub-satellite position, see the globe view (requires WebGL).

§ Visibility from observer

Set your observer location to see the next 7 days of passes ≥ 10°. The values pass through the URL so the page stays shareable.

No JS? Fill the form by hand. The geolocation button needs JavaScript.